Weather History for Biloxi, MS

Change the Weather History Date:

Tuesday, February 12, 2013

  Actual Average Record
Temperature  
Mean Temperature 62 °F -  
Max Temperature 68 °F 61 °F 77 °F (2001)
Min Temperature 57 °F 42 °F 21 °F (1981)
Degree Days  
Heating Degree Days 2    
Growing Degree Days 12 (Base 50)    
Moisture  
Dew Point 60 °F    
Average Humidity 96    
Maximum Humidity 100    
Minimum Humidity 88    
Precipitation  
Precipitation 0.11 in - - ()
Sea Level Pressure  
Sea Level Pressure 29.89 in    
Wind  
Wind Speed 9 mph (East)    
Max Wind Speed 16 mph    
Max Gust Speed 24 mph    
Visibility 7 miles    
Events Rain    
Averages and records for this station are not official NWS values.
T = Trace of Precipitation, MM = Missing Value Source: NWS Daily Summary

Daily Weather History Graph

Daily Weather History Graph

Search for Another Location

Airport:

Trip Planner

Search our weather history database for the weather conditions in past years. The results will help you decide how hot, cold, wet, or windy it might be!

Date:

Astronomy

Feb. 12, 2013 Rise Set
Actual Time 6:38 AM CST 5:41 PM CST
Civil Twilight 6:13 AM CST 6:06 PM CST
Nautical Twilight 5:45 AM CST 6:34 PM CST
Astronomical Twilight 5:17 AM CST 7:02 PM CST
Moon 7:50 AM CST (2/12) 8:25 PM CST (2/12)
Length of Visible Light 11h 52m
Length of Day
11h 03m
Waxing Crescent, 7% of the Moon is Illuminated
Feb 12
Waxing Crescent
Feb 17
First Quarter
Feb 25
Full
Mar 4
Last Quarter
Mar 11
New

Hourly Weather History & Observations

Time (CST) Temp. Dew Point Humidity Pressure Visibility Wind Dir Wind Speed Gust Speed Precip Events Conditions
12:13 AM 57.2 °F 55.4 °F 94% 30.05 in 10.0 mi NE 9.2 mph - N/A   Overcast
12:23 AM 57.2 °F 57.2 °F 100% 30.04 in 10.0 mi NE 8.1 mph - N/A   Overcast
12:38 AM 57.2 °F 57.2 °F 100% 30.04 in 10.0 mi NE 9.2 mph - N/A   Overcast
12:58 AM 57.7 °F 56.3 °F 95% 30.05 in 10.0 mi ENE 6.9 mph - N/A   Overcast
1:08 AM 57.2 °F 55.4 °F 94% 30.05 in 10.0 mi NNE 8.1 mph - N/A   Overcast
1:18 AM 57.2 °F 55.4 °F 94% 30.05 in 10.0 mi NNE 8.1 mph - N/A   Overcast
1:28 AM 57.2 °F 55.4 °F 94% 30.04 in 10.0 mi NE 6.9 mph - N/A   Overcast
2:16 AM 57.2 °F 55.4 °F 94% 30.03 in 10.0 mi NE 11.5 mph - N/A   Overcast
2:58 AM 57.2 °F 55.9 °F 96% 30.04 in 10.0 mi NE 12.7 mph - 0.01 in   Overcast
3:27 AM 57.2 °F 55.4 °F 94% 30.01 in 10.0 mi ENE 12.7 mph - N/A   Overcast
3:42 AM 57.2 °F 55.4 °F 94% 30.00 in 10.0 mi ENE 13.8 mph - N/A   Overcast
3:58 AM 57.2 °F 55.4 °F 94% 30.01 in 10.0 mi ENE 11.5 mph - N/A   Overcast
4:33 AM 57.2 °F 55.4 °F 94% 30.00 in 10.0 mi ENE 11.5 mph - N/A   Overcast
4:48 AM 57.2 °F 55.4 °F 94% 29.99 in 10.0 mi ENE 12.7 mph - N/A   Overcast
4:58 AM 57.0 °F 55.4 °F 94% 30.00 in 10.0 mi ENE 11.5 mph - N/A   Overcast
5:23 AM 57.2 °F 55.4 °F 94% 29.99 in 10.0 mi NE 10.4 mph - N/A   Overcast
5:53 AM 57.2 °F 55.4 °F 94% 29.98 in 10.0 mi ENE 10.4 mph - N/A   Overcast
5:58 AM 57.4 °F 55.8 °F 94% 29.98 in 10.0 mi ENE 11.5 mph - N/A   Overcast
6:58 AM 57.4 °F 55.4 °F 93% 29.99 in 10.0 mi ENE 10.4 mph - N/A   Overcast
7:03 AM 57.2 °F 55.4 °F 94% 29.97 in 10.0 mi ENE 13.8 mph - N/A   Overcast
7:58 AM 57.6 °F 55.8 °F 94% 29.96 in 10.0 mi ENE 9.2 mph - N/A   Overcast
8:58 AM 57.9 °F 55.9 °F 93% 29.98 in 10.0 mi ENE 10.4 mph - N/A   Overcast
9:43 AM 59.0 °F 55.4 °F 88% 29.97 in 10.0 mi ENE 8.1 mph - N/A   Overcast
9:45 AM 59.0 °F 57.2 °F 94% 29.97 in 10.0 mi East 8.1 mph - N/A Rain Light Rain
9:58 AM 58.5 °F 56.8 °F 94% 29.97 in 10.0 mi East 10.4 mph - 0.00 in Rain Light Rain
10:06 AM 59.0 °F 57.2 °F 94% 29.95 in 10.0 mi East 11.5 mph - N/A   Overcast
10:31 AM 59.0 °F 57.2 °F 94% 29.94 in 10.0 mi ENE 11.5 mph - N/A   Overcast
10:55 AM 59.0 °F 57.2 °F 94% 29.94 in 10.0 mi East 10.4 mph - N/A Rain Light Rain
10:58 AM 59.0 °F 57.2 °F 94% 29.95 in 9.0 mi East 10.4 mph - 0.00 in Rain Light Rain
11:08 AM 59.0 °F 57.2 °F 94% 29.94 in 8.0 mi East 6.9 mph - N/A Rain Light Rain
11:14 AM 59.0 °F 57.2 °F 94% 29.94 in 10.0 mi ESE 6.9 mph - N/A   Overcast
11:58 AM 60.1 °F 58.6 °F 95% 29.90 in 10.0 mi East 10.4 mph - 0.01 in   Overcast
12:18 PM 60.8 °F 59.0 °F 94% 29.87 in 9.0 mi ESE 9.2 mph - N/A   Overcast
12:45 PM 60.8 °F 59.0 °F 94% 29.85 in 8.0 mi East 6.9 mph - N/A Rain Light Rain
12:50 PM 60.8 °F 60.8 °F 100% 29.84 in 7.0 mi East 8.1 mph - N/A Rain Light Rain
12:58 PM 61.3 °F 60.3 °F 96% 29.85 in 8.0 mi ENE 5.8 mph - 0.01 in Rain Light Rain
1:13 PM 60.8 °F 60.8 °F 100% 29.83 in 2.0 mi ENE 6.9 mph - N/A Rain Light Rain
1:23 PM 62.6 °F 60.8 °F 94% 29.83 in 3.0 mi East 4.6 mph - N/A Rain Light Rain
1:38 PM 62.6 °F 60.8 °F 94% 29.82 in 6.0 mi ESE 6.9 mph - N/A   Light Drizzle
1:39 PM 62.6 °F 60.8 °F 94% 29.82 in 6.0 mi East 8.1 mph - N/A   Overcast
1:44 PM 62.6 °F 60.8 °F 94% 29.81 in 7.0 mi ESE 5.8 mph - N/A   Overcast
1:47 PM 62.6 °F 60.8 °F 94% 29.81 in 7.0 mi SE 6.9 mph - N/A   Light Drizzle
1:48 PM 62.6 °F 60.8 °F 94% 29.81 in 8.0 mi ESE 5.8 mph - N/A   Overcast
1:51 PM 62.6 °F 60.8 °F 94% 29.81 in 7.0 mi SE 5.8 mph - N/A Rain Light Rain
1:58 PM 62.6 °F 61.9 °F 97% 29.81 in 8.0 mi ESE 6.9 mph - 0.07 in Rain Light Rain
2:03 PM 62.6 °F 62.6 °F 100% 29.80 in 8.0 mi SE 6.9 mph - N/A Rain Light Rain
2:08 PM 62.6 °F 62.6 °F 100% 29.80 in 7.0 mi SE 5.8 mph - N/A Rain Light Rain
2:10 PM 62.6 °F 62.6 °F 100% 29.80 in 8.0 mi ESE 6.9 mph - N/A   Overcast
2:20 PM 64.4 °F 62.6 °F 94% 29.80 in 10.0 mi ESE 3.5 mph - N/A   Overcast
2:55 PM 64.4 °F 62.6 °F 94% 29.80 in 2.0 mi NW 4.6 mph - N/A   Overcast
2:58 PM 63.7 °F 62.8 °F 97% 29.80 in 7.0 mi Variable 3.5 mph - 0.01 in   Overcast
3:13 PM 66.2 °F 66.2 °F 100% 29.78 in 3.0 mi SSW 8.1 mph - N/A   Overcast
3:38 PM 68.0 °F 66.2 °F 94% 29.77 in 2.0 mi SSW 16.1 mph - N/A   Overcast
3:43 PM 68.0 °F 66.2 °F 94% 29.77 in 5.0 mi SSW 16.1 mph 24.2 mph N/A   Overcast
3:58 PM 66.2 °F 66.2 °F 100% 29.78 in 2.0 mi SSW 12.7 mph - N/A   Overcast
4:55 PM 66.2 °F 66.2 °F 100% 29.77 in 2.0 mi SSW 15.0 mph - N/A   Overcast
5:55 PM 66.2 °F 66.2 °F 100% 29.77 in 2.0 mi SSW 16.1 mph - N/A   Overcast
6:40 PM 66.2 °F 66.2 °F 100% 29.77 in 3.0 mi SW 12.7 mph - N/A   Overcast
6:55 PM 66.2 °F 66.2 °F 100% 29.78 in 3.0 mi SW 11.5 mph - N/A   Overcast
7:55 PM 68.0 °F 68.0 °F 100% 29.80 in 4.0 mi WSW 15.0 mph - N/A   Overcast
8:55 PM 68.0 °F 66.2 °F 94% 29.79 in 6.0 mi WSW 9.2 mph - N/A   Overcast
9:50 PM 66.2 °F 66.2 °F 100% 29.79 in 1.0 mi SW 9.2 mph - N/A   Overcast
9:55 PM 66.2 °F 66.2 °F 100% 29.80 in 2.0 mi WSW 9.2 mph - N/A   Overcast
10:32 PM 66.2 °F 66.2 °F 100% 29.81 in 2.0 mi WSW 8.1 mph - N/A   Overcast
10:53 PM 66.2 °F 66.2 °F 100% 29.80 in 6.0 mi WSW 6.9 mph - N/A   Partly Cloudy
10:58 PM 66.2 °F 66.2 °F 100% 29.81 in 6.0 mi WSW 6.9 mph - N/A   Partly Cloudy
11:03 PM 66.2 °F 66.2 °F 100% 29.81 in 7.0 mi WSW 6.9 mph - N/A   Clear
11:28 PM 64.4 °F 64.4 °F 100% 29.80 in 5.0 mi SW 9.2 mph - N/A   Scattered Clouds
11:33 PM 64.4 °F 64.4 °F 100% 29.80 in 4.0 mi SW 6.9 mph - N/A   Scattered Clouds
11:53 PM 64.4 °F 64.4 °F 100% 29.79 in 4.0 mi West 3.5 mph - N/A   Mostly Cloudy
11:58 PM 64.9 °F 64.4 °F 98% 29.80 in 4.0 mi West 3.5 mph - N/A   Mostly Cloudy